Hourly Data Report for November 11, 2019

All times are specified in Local Standard Time (LST). Add 1 hour to adjust for Daylight Saving Time where and when it is observed.

SATURNA ISLAND CS
BRITISH COLUMBIA
Current Station Operator: ECCC - MSC

48°47'02.067" N
123°02'41.082" W
24.40 m
1017101
71473
WEZ

Download Data

Hourly Data (November 2019)
Hourly Data Report for November 11, 2019
TIME Temp Definition
°C
Dew Point Definition
°C
Rel Hum Definition
%
Wind Dir Definition
10's deg

Wind Spd Definition
km/h
Visibility Definition
km
Stn Press Definition
kPa
Hmdx Definition


Wind Chill Definition


Weather Definition


00:00 8.9 8.1 95 33 10   102.46     LegendNANA
01:00 8.9 4.6 74 4 23   102.44     LegendNANA
02:00 9.6 3.7 67 6 25   102.42     LegendNANA
03:00 9.4 3.2 65 5 21   102.41     LegendNANA
04:00 9.1 2.6 64 2 22   102.42     LegendNANA
05:00 9.0 2.3 63 4 22   102.41     LegendNANA
06:00 8.6 2.1 64 4 19   102.39     LegendNANA
07:00 8.7 2.1 63 5 20   102.38     LegendNANA
08:00 8.7 1.3 60 4 19   102.38     LegendNANA
09:00 8.8 2.0 62 4 18   102.36     LegendNANA
10:00 9.9 1.6 56 5 17   102.31     LegendNANA
11:00 9.8 3.1 63 2 11   102.31     LegendNANA
12:00 11.6 2.3 53 2 12   102.20     LegendNANA
13:00 9.8 3.7 66 34 7   102.13     LegendNANA
14:00 9.5 4.4 71 33 7   102.09     LegendNANA
15:00 9.1 5.2 77 31 5   102.07     LegendNANA
16:00 8.8 5.3 79 32 7   102.01     LegendNANA
17:00 9.0 5.0 76 30 2   102.00     LegendNANA
18:00 8.6 5.8 83 32 4   101.90     LegendNANA
19:00 8.8 6.3 84 33 7   101.80     LegendNANA
20:00 8.8 5.9 82 31 6   101.74     LegendNANA
21:00 8.8 5.4 79 31 8   101.76     LegendNANA
22:00 8.9 6.7 86 27 6   101.80     LegendNANA
23:00 8.6 7.2 91 29 5   101.73     LegendNANA

Notes on Data Quality.

Legend

  • E = Estimated
  • M = Missing
  • NA = Not Available
Date modified: